Location: Krasnoyarskiy Pitomnik
(51.1333°N, 71.6167°E)
Time: 10:24:38
(UTC+00:00)

SL-4 R/B - Pass Details

Date: 22 October 2021
Orbit: 427 x 661 km, 51.6° (Epoch: 06 December)

Event Time Altitude Azimuth Distance (km) Brightness Sun altitude
Exits shadow 23:47:07 51° 240° (WSW) 732 2.2 -19.9°
Maximum altitude 23:47:44 57° 205° (SSW) 681 2.2 -19.8°
Drops below altitude 10° 23:51:47 10° 126° (SE) 1,806 5.3 -19.2°
Sets 23:53:56 0° 122° (ESE) 2,654 6.4 -18.9°
